Theta_e
336 342 348 348 348 349 349 349 348 348 347 346 345 344 343 342 343 344 343 343 342 340 339 340 338 337 336 338 336 335 335 334 335 336 336 336 335 335 335 333 333 331 336
339 343 346 348 348 348 349 349 348 347 345 344 343 343 342 341 340 338 340 339 340 340 342 341 338 335 334 334 334 334 334 334 333 335 333 334 335 336 336 336 335 334 335
340 344 346 347 349 349 349 349 348 346 343 342 341 340 339 339 339 338 338 340 340 339 340 340 338 335 334 333 333 334 334 334 334 333 332 330 333 336 335 335 336 336 337
342 345 346 345 348 348 348 348 348 346 343 341 339 339 339 338 337 337 337 338 339 338 340 338 336 334 335 335 335 334 334 334 332 331 329 329 331 336 336 334 333 335 335
342 344 344 345 347 347 347 347 347 346 344 341 338 338 338 337 337 337 337 337 336 338 338 337 335 335 335 335 334 334 333 332 331 331 330 330 332 335 334 333 334 334 335
340 342 343 345 346 346 346 346 347 346 345 343 339 337 336 335 336 335 335 338 335 337 339 335 335 335 335 334 334 333 333 332 330 332 332 332 333 335 337 337 337 336 336
337 340 343 344 345 346 346 345 346 346 345 343 341 338 336 335 335 334 335 335 335 336 336 335 335 335 334 334 333 333 331 329 329 328 328 332 335 338 338 338 336 335 333
335 338 342 337 339 342 344 345 344 345 344 343 341 337 336 335 335 334 334 335 335 335 336 336 335 334 333 333 332 330 328 326 327 329 331 334 336 337 337 336 334 331 330
335 336 339 339 337 335 338 339 341 342 342 341 340 338 337 335 334 333 334 335 334 335 335 334 334 334 332 330 329 327 325 325 328 330 331 334 335 336 336 333 331 329 326
334 335 335 336 337 337 338 331 333 336 337 338 336 333 331 330 329 330 330 334 334 334 333 333 332 332 332 329 327 324 323 324 329 330 331 333 335 335 335 331 328 326 323
331 332 333 333 334 333 333 328 328 329 330 330 329 326 326 331 330 330 329 332 334 333 332 330 329 330 331 327 324 322 322 326 327 327 329 331 332 333 331 328 325 323 321
325 329 331 331 331 330 329 329 330 329 329 330 330 329 329 328 329 328 325 326 328 329 331 329 327 324 323 325 323 321 324 325 324 324 326 329 330 331 328 325 322 321 320
326 328 329 329 329 328 328 328 328 327 326 327 327 326 326 325 326 326 326 325 325 319 322 323 323 323 323 323 322 322 323 323 322 321 321 325 327 329 326 323 321 320 319
325 327 330 328 327 327 327 327 326 325 324 325 325 325 324 323 323 322 323 322 322 321 321 322 322 323 323 322 321 321 322 321 320 319 319 319 327 326 325 322 320 319 317
323 327 329 327 327 326 325 325 325 324 324 324 324 324 324 323 321 320 320 320 320 321 321 321 321 322 322 322 321 321 320 319 317 317 321 317 325 325 322 320 318 317 316
324 326 329 327 326 325 325 324 324 324 324 323 323 324 324 324 322 319 318 318 318 320 321 321 321 322 322 322 321 320 320 318 313 313 319 321 320 322 320 318 316 316 315
324 326 327 327 326 325 325 324 324 324 323 322 322 323 324 324 322 320 318 318 319 320 320 321 321 321 322 321 321 320 319 317 311 312 313 314 316 317 318 316 315 314 314
325 323 326 327 325 325 325 324 324 323 323 323 323 324 324 324 323 320 318 319 321 320 320 320 320 320 320 320 320 321 319 317 312 311 310 310 311 313 316 315 314 314 314
326 324 324 327 326 325 324 324 324 324 323 323 322 323 324 324 323 322 320 321 321 321 320 320 320 320 319 319 319 320 319 316 311 310 309 308 309 310 312 314 313 313 313
326 326 325 325 327 326 325 324 323 323 323 323 323 323 324 324 323 322 321 321 321 320 320 320 320 319 320 319 317 318 318 315 310 310 311 310 310 309 309 309 310 309 311
325 326 325 323 324 325 324 322 322 320 322 321 322 324 324 324 324 323 322 321 321 320 320 320 320 319 318 318 316 313 310 310 310 308 311 310 308 306 306 304 304 305 307
322 325 326 324 324 324 325 325 325 324 322 323 322 322 324 324 324 324 323 322 321 320 320 320 319 317 318 318 316 314 309 310 307 310 310 309 308 306 303 301 301 301 302
321 322 324 326 324 324 325 324 320 320 319 320 319 320 320 323 324 323 323 323 321 321 320 320 319 318 318 316 318 315 308 308 308 305 304 307 307 306 303 301 297 295 298
321 323 324 325 326 324 324 323 322 321 319 321 322 322 321 321 321 322 323 323 322 321 321 321 320 320 319 317 316 317 315 311 306 307 301 301 303 304 304 302 298 294 292
321 322 323 324 324 326 325 324 322 322 323 324 322 320 320 320 321 321 322 322 321 321 322 322 320 320 319 320 318 317 315 315 308 306 308 310 298 302 304 303 300 297 294
320 322 323 322 322 325 326 324 324 323 323 321 321 320 320 320 320 321 321 322 322 322 321 321 321 320 320 320 321 320 316 313 311 309 306 309 309 310 301 302 300 298 295
Wind_Speed
4 4 7 10 11 14 15 19 17 15 16 16 16 16 16 17 17 16 15 15 17 17 16 20 19 19 17 18 18 18 18 18 18 19 19 19 19 18 18 16 14 11 16
9 6 9 10 12 13 15 16 15 15 15 16 16 16 16 17 16 17 14 15 17 17 16 21 18 18 17 18 18 18 19 18 17 16 17 18 17 16 16 15 14 13 15
9 7 9 11 12 13 13 13 15 14 15 16 15 15 15 16 16 17 15 15 17 17 17 17 18 17 17 17 17 18 17 17 15 14 12 8 9 15 16 14 14 13 15
10 8 9 10 11 13 12 12 14 15 15 15 14 14 15 16 15 16 15 15 14 15 17 17 17 17 17 17 17 17 17 16 14 12 9 7 8 14 14 12 12 13 13
10 9 8 10 10 11 12 12 12 14 14 15 14 15 15 16 16 14 14 15 15 15 18 17 16 17 16 16 16 16 16 14 12 8 6 5 4 8 9 10 10 9 11
9 8 8 9 10 10 11 12 12 14 14 14 15 14 14 15 15 15 14 13 15 15 16 16 16 16 15 15 15 14 13 12 9 7 6 6 6 6 9 13 21 20 19
9 7 8 9 11 10 10 11 12 12 13 15 14 14 14 15 14 14 14 15 15 14 14 16 16 15 14 14 13 12 12 11 7 7 6 6 7 14 17 18 19 19 19
9 7 7 8 9 9 9 10 11 12 14 16 15 14 14 13 13 14 13 13 14 14 14 14 15 14 13 12 12 11 11 9 7 8 7 6 7 15 16 17 18 19 19
7 7 6 7 7 8 9 9 10 12 12 15 14 13 11 10 12 12 11 12 13 13 14 14 13 12 12 11 12 11 10 9 7 5 6 6 11 16 17 17 17 15 17
7 7 8 6 6 6 7 8 9 11 11 12 12 12 10 9 11 10 8 9 12 13 13 12 11 10 11 11 11 10 10 8 7 7 7 6 10 14 16 16 14 16 15
5 7 7 7 7 7 6 5 10 14 11 12 10 9 10 6 6 6 6 8 9 10 12 11 11 9 10 10 9 9 7 4 5 5 4 7 11 13 14 14 16 14 12
12 9 8 8 8 7 6 6 6 7 8 9 9 7 5 6 4 4 5 7 8 9 9 10 9 9 6 4 4 6 4 4 4 4 4 9 9 12 13 14 12 11 11
13 9 9 9 8 8 6 5 4 4 4 4 7 5 5 5 4 3 3 2 3 5 3 4 5 3 4 3 3 3 4 4 3 3 5 9 6 10 12 12 10 10 10
13 14 12 10 9 8 5 5 5 5 5 5 6 6 5 3 4 3 3 3 3 2 3 3 3 4 4 4 4 4 4 3 2 2 4 8 5 8 11 10 8 7 7
14 12 12 10 10 9 8 6 6 6 5 6 6 7 5 5 4 3 3 2 2 2 1 2 3 3 3 4 4 4 4 4 3 2 2 6 7 8 9 7 6 6 5
13 13 14 12 11 10 9 9 7 6 7 6 5 6 8 5 5 5 4 4 3 3 2 2 3 3 2 3 3 4 4 4 3 2 3 5 10 8 7 5 3 3 3
13 12 15 15 12 12 11 9 7 7 7 7 7 8 8 6 6 6 4 3 3 3 3 2 2 2 2 2 4 4 4 3 3 2 1 3 5 9 7 5 4 3 4
13 14 13 12 13 13 11 8 7 7 7 7 6 7 9 8 8 6 5 5 4 4 3 3 3 3 4 4 3 4 4 4 4 4 4 3 2 4 8 10 9 9 9
14 14 13 13 15 13 11 8 8 9 8 7 7 7 9 9 9 8 6 6 6 5 5 4 4 4 4 4 4 4 4 5 5 4 5 6 7 6 5 10 10 9 11
13 13 14 12 13 12 8 7 6 6 7 7 7 8 10 8 10 9 7 7 6 5 4 4 5 4 3 3 3 3 4 5 5 6 7 6 7 9 8 8 7 7 10
13 14 15 14 13 11 8 9 7 9 8 7 8 11 11 10 10 9 7 7 7 7 8 8 5 6 5 4 4 2 3 4 8 7 9 8 10 9 7 3 3 3 4
17 17 15 16 15 14 10 9 6 7 6 8 8 9 11 11 11 10 10 9 9 7 8 8 8 3 4 7 4 1 3 4 8 10 7 9 12 8 8 8 8 8 6
18 17 17 18 17 15 15 8 4 3 2 5 6 8 11 12 11 12 11 9 9 8 7 9 9 10 6 6 9 3 2 6 1 3 11 9 11 9 9 10 9 8 9
19 16 18 17 17 16 16 12 15 12 11 9 8 8 7 11 12 12 12 11 11 8 9 9 9 9 8 8 4 8 4 2 4 4 4 7 11 12 13 10 10 9 8
18 20 19 19 18 17 18 17 13 14 10 7 6 8 10 9 12 13 13 12 11 9 10 11 10 11 9 9 8 4 7 8 5 6 10 6 6 10 10 11 10 11 12
14 15 16 19 19 19 19 19 18 18 14 9 9 9 8 8 9 12 11 11 11 10 11 11 12 12 11 10 9 9 8 6 5 8 9 11 11 7 9 10 12 11 8
Wind_Direction
166 152 136 129 114 115 113 111 109 107 107 104 100 97 95 92 90 86 89 94 94 85 87 90 85 81 78 80 79 78 77 77 69 69 71 71 72 73 73 71 60 63 67
141 152 140 131 121 115 114 115 113 110 108 106 104 104 101 101 100 97 99 99 92 88 90 95 87 83 86 85 85 85 83 76 73 69 68 69 70 69 73 70 75 73 71
140 143 140 132 125 123 123 123 121 116 111 107 107 107 109 108 106 104 104 99 95 92 92 90 89 87 89 89 91 88 83 76 68 57 55 68 71 76 70 60 61 57 59
137 135 135 132 133 131 131 125 127 122 115 111 112 110 113 108 105 106 109 109 105 98 101 95 93 93 94 93 90 86 80 68 58 49 66 58 67 68 64 64 60 55 50
130 133 138 138 140 136 133 134 130 127 125 121 120 114 113 109 105 103 107 110 106 99 101 98 97 99 97 94 90 84 71 63 55 54 47 33 49 81 85 72 53 45 44
130 132 144 142 142 137 137 142 136 136 133 127 121 116 115 109 106 109 109 113 105 99 106 102 104 100 98 94 86 77 68 60 53 51 38 21 0 44 69 67 75 71 64
142 141 145 144 141 138 136 142 137 132 140 130 123 121 117 112 107 112 112 114 111 105 105 106 105 103 98 91 85 74 62 54 49 46 26 17 53 72 83 78 71 67 61
149 146 140 139 134 130 129 142 141 132 129 129 126 124 121 118 117 115 116 118 118 114 108 108 107 106 101 92 80 68 57 42 41 33 22 21 86 83 72 76 71 62 56
146 144 147 146 140 128 134 134 140 133 130 128 127 123 118 122 123 124 117 120 120 116 109 106 110 108 100 94 82 70 60 52 48 34 34 43 68 77 77 76 67 66 62
154 156 155 148 143 143 148 126 121 124 111 119 114 116 114 123 133 125 109 120 125 118 112 109 103 107 112 99 85 71 60 51 49 40 37 58 59 75 80 72 70 62 70
161 162 159 152 152 149 149 141 121 116 113 115 114 119 118 125 121 117 109 104 108 114 113 103 96 96 107 93 84 69 62 57 53 40 35 45 69 82 81 74 66 68 72
177 178 172 160 162 152 152 153 135 130 144 144 142 145 127 122 118 108 87 90 92 88 80 83 91 95 102 108 90 68 65 63 54 42 30 16 72 90 81 72 72 74 69
184 180 185 170 168 161 159 158 150 142 134 128 123 128 126 129 123 119 113 99 104 88 103 90 93 99 110 134 120 100 94 79 67 52 25 15 38 90 80 79 73 71 71
187 188 185 180 167 172 162 169 162 157 158 153 156 148 147 140 141 149 155 148 145 141 123 112 111 121 124 121 130 119 104 97 79 56 29 3 34 98 90 86 84 85 82
191 193 184 183 176 173 172 172 173 179 175 174 171 172 162 162 167 159 169 171 164 148 128 121 129 141 139 144 140 142 137 129 121 97 62 36 97 91 96 100 100 98 99
190 195 187 189 183 172 180 182 184 185 182 180 186 184 178 173 167 183 182 182 182 190 180 167 170 168 165 165 161 167 172 164 144 134 116 93 81 81 99 104 111 115 116
195 190 194 189 183 181 186 187 185 191 188 190 192 187 184 178 182 180 193 201 199 194 201 199 166 156 172 163 198 194 184 184 147 124 120 129 124 124 132 147 158 174 176
190 192 194 189 188 186 186 187 189 191 197 203 198 193 188 187 188 185 197 207 196 191 192 196 187 187 197 203 199 200 200 185 173 178 173 177 204 172 161 170 183 194 197
193 190 192 191 193 191 189 186 191 199 204 206 199 198 200 198 193 198 202 210 198 194 200 197 197 210 199 202 210 204 201 200 188 204 206 200 193 208 201 183 184 205 209
193 193 193 192 191 188 183 184 199 208 212 208 206 203 200 204 202 204 207 210 202 205 205 201 211 207 219 207 194 205 205 205 188 208 227 228 232 219 214 207 197 204 215
191 193 196 188 192 181 185 190 205 213 214 216 210 207 201 204 204 209 214 210 203 205 210 207 202 213 210 164 138 178 229 218 213 203 216 222 232 236 236 255 262 254 239
197 199 198 198 189 189 194 197 197 194 212 216 207 207 206 201 201 204 209 212 205 208 212 208 197 190 220 187 189 162 233 217 236 238 226 224 235 226 228 220 221 223 222
204 197 197 201 194 195 195 182 149 158 175 191 207 209 212 207 204 206 208 210 206 206 212 208 202 205 217 201 213 185 199 242 316 189 232 230 236 232 230 224 217 217 220
208 194 203 199 198 196 188 189 198 203 210 213 211 211 205 205 208 209 211 208 208 205 211 208 203 209 212 221 212 238 254 171 209 274 219 231 236 236 229 222 219 215 211
198 198 199 198 197 193 194 200 200 212 217 214 194 188 206 205 211 211 209 208 210 209 216 210 207 207 206 224 217 203 225 232 213 239 273 243 245 237 236 233 225 221 212
203 198 198 198 201 197 197 201 203 210 210 203 196 206 207 207 210 214 209 211 215 214 214 213 216 213 212 221 226 223 218 222 209 225 246 258 253 238 222 219 221 218 209